Regional Weather Roundup
Issued by NWS

Home | Current Version | Previous Version | Text Only | Print | Product List | Glossary On
Versions: 1 2 3 4 5 6 7 8 9 10 11 12 13 14 15 16 17 18 19 20 21 22 23 24 25 26 27 28 29 30 31 32 33 34 35 36 37 38 39 40 41 42 43 44 45 46 47 48 49 50
000
ASUS43 KMPX 251901
RWRMN
WEATHER ROUNDUP FOR MINNESOTA
NATIONAL WEATHER SERVICE TWIN CITIES/CHANHASSEN MN
200 PM CDT SUN SEP 25 2016


NOTE: "FAIR" INDICATES FEW OR NO CLOUDS BELOW 12,000 FEET WITH NO
SIGNIFICANT WEATHER AND/OR OBSTRUCTIONS TO VISIBILITY. N/A MEANS
CURRENT SKY AND/OR WEATHER CONDITIONS ARE NOT AVAILABLE.

MNZ060>063-068>070-252000-
   Twin Cities Metro

CITY           SKY/WX    TMP DP  RH WIND       PRES   REMARKS
TWIN CITIES    CLOUDY    63  51  65 SW10G21   29.91S
ST PAUL        CLOUDY    63  52  67 W16       29.91S
CRYSTAL        CLOUDY    62  50  64 SW13      29.89F
BLAINE         CLOUDY    63  54  72 SW12G17   29.90S
LAKEVILLE      CLOUDY    63  52  67 W8G18     29.92S
EDEN PRAIRIE   CLOUDY    64  53  67 SW13      29.90F
LAKEVILLE      CLOUDY    63  52  67 W8G18     29.92S
SOUTH ST PAUL  CLOUDY    63  52  66 W13G20    29.92R
LAKE ELMO      CLOUDY    63  54  72 W22G30    29.92R
$$
MNZ001>005-007-008-013>017-022>024-027-028-252000-
   Northwest Minnesota

CITY           SKY/WX    TMP DP  RH WIND       PRES   REMARKS
BEMIDJI        RAIN      55  53  92 SW12G17   29.75S
HALLOCK        LGT RAIN  54  52  94 NW22G31   29.72F
ROSEAU         CLOUDY    57  54  88 SW14      29.66F
THIEF RVR FALL CLOUDY    54  50  86 W18G29    29.76R FOG
CROOKSTON      PTSUNNY   54  54 100 NW28G36   29.78R
FOSSTON        LGT RAIN  52  50  93 W20G26    29.78R
DETROIT LAKES  PTSUNNY   54  50  87 W18       29.85S
MOORHEAD       PTSUNNY   55  52  88 NW22G33   29.87R HAZE
PARK RAPIDS    CLOUDY    60  51  72 W24G30    29.80R
MAHNOMEN       CLOUDY    54  52  92 W20       29.80R
$$
MNZ006-009>011-018-025>026-252000-
   North Central Minnesota

CITY           SKY/WX    TMP DP  RH WIND       PRES   REMARKS
BAUDETTE       CLOUDY    59  50  72 SW12      29.66F
FLAG ISLAND    CLOUDY    59  52  77 S9G16     29.62F
INTL FALLS     CLOUDY    63  54  72 SW10G21   29.67R
BIG FORK       PTSUNNY   64  54  68 SW14G21   29.73F
GRAND RAPIDS   CLOUDY    60  52  74 SW12      29.78F
COOK           MOSUNNY   68  54  60 SW13G24   29.71S
WALKER         CLOUDY    57  52  82 SW14G21   29.77R
$$
MNZ012-019>021-037-252000-
   Northeast Minnesota

CITY           SKY/WX    TMP DP  RH WIND       PRES   REMARKS
DULUTH         MOSUNNY   69  58  67 SW23G29   29.77S
ELY            MOSUNNY   66  61  82 S8G16     29.71F
HIBBING        CLOUDY    61  52  72 SW12G24   29.75R
EVELETH        MOSUNNY   66  51  58 SW14G25   29.75R
DULUTH HARBOR  MOSUNNY   70  55  60 SW26      29.76S
TWO HARBORS    PTSUNNY   70  64  83 SW8       29.74F
SILVER BAY     CLOUDY    68  63  83 S9G16     29.73F
GRAND MARAIS     N/A     62  62 100 CALM      29.76F
G MARAIS ARPRT DRIZZLE   57  55  94 S8        29.79F
$$
MNZ029>031-032-039>041-046>048-054>057-064-252000-
   West Central Minnesota

CITY           SKY/WX    TMP DP  RH WIND       PRES   REMARKS
FERGUS FALLS   CLOUDY    55  52  88 NW14G22   29.91R HAZE
MORRIS         CLOUDY    61  50  67 W22G31    29.92R
ALEXANDRIA     CLOUDY    58  52  80 W18G26    29.89R
ELBOW LAKE     CLOUDY    56  51  84 NW15G24   29.90S
GLENWOOD       PTSUNNY   59  50  72 W24G31    29.90R
BENSON         CLOUDY    61  48  63 NW23G33   29.93R
MADISON          N/A     63  52  67 NW22G30   29.97R
WILLMAR        PTSUNNY   63  52  67 W18G32    29.93S
$$
MNZ033>034-036-042>043-049>051-058-059-252000-
   Central Minnesota

CITY           SKY/WX    TMP DP  RH WIND       PRES   REMARKS
ST CLOUD       CLOUDY    62  54  74 W14       29.86F
SAUK CENTRE    CLOUDY    59  51  73 W16G25    29.89R
PAYNESVILLE    DRIZZLE   58  58 100 W16       29.91R
AITKIN         CLOUDY    63  50  63 SW9G20    29.80F
PINE RIVER     DRIZZLE   57  54  88 SW6       29.84S
BRAINERD       CLOUDY    59  52  77 SW17G23   29.82F
STAPLES        CLOUDY    57  52  82 SW17      29.84R
LONG PRAIRIE   CLOUDY    55  52  88 SW14      29.88R
LITTLE FALLS   PTSUNNY   59  52  77 W10       29.86S
BUFFALO        CLOUDY    62  52  69 SW9G16    29.89F
MAPLE LAKE     CLOUDY    63  55  76 SW10G17   29.89F
HUTCHINSON     DRIZZLE   61  56  84 W15G23    29.94R
$$
MNZ037-044-045-052-053-252000-
   East Central Minnesota

CITY           SKY/WX    TMP DP  RH WIND       PRES   REMARKS
PRINCETON      CLOUDY    63  54  72 S8G18     29.87F
MORA           PTSUNNY   59  50  72 SW8       29.87F
CAMBRIDGE      CLOUDY    64  52  63 SW13      29.86F
MOOSE LAKE     CLOUDY    59  50  72 SW17G23   29.81R
HINCKLEY       CLOUDY    61  54  77 SW15      29.85F
CLOQUET        PTSUNNY   64  52  63 SW20G28   29.79R
MCGREGOR       CLOUDY    59  52  77 S12G17    29.81F
$$
MNZ071>073-080-081-089-090-097-098-252000-
   Southwest Minnesota

CITY           SKY/WX    TMP DP  RH WIND       PRES   REMARKS
MONTEVIDEO     CLOUDY    63  52  67 NW17G30   29.97R
GRANITE FALLS  CLOUDY    62  53  71 W18G25    29.97S
CANBY          CLOUDY    61  50  67 NW28G33   30.00R
MARSHALL       CLOUDY    62  50  64 NW28G36   29.96F
REDWOOD FALLS  CLOUDY    61  50  67 W21G26    29.95R
OLIVIA         CLOUDY    61  52  72 W20G26    29.93S
PIPESTONE      CLOUDY    59  48  67 NW21G28   30.03R
WINDOM         CLOUDY    61  50  67 W17G29    29.99S
WORTHINGTON    CLOUDY    58  49  72 W21G29    30.03S
JACKSON        CLOUDY    61  48  63 W21       30.01S
TRACY          CLOUDY    62  52  69 W17G24    29.99S
$$
MNZ065>067-074>077-082>085-091>093-252000-
   South Central Minnesota

CITY           SKY/WX    TMP DP  RH WIND       PRES   REMARKS
MANKATO        CLOUDY    63  52  67 W15G23    29.95F
ST JAMES       CLOUDY    63  52  67 W12G20    29.98S
FAIRMONT       CLOUDY    62  51  67 W20G25    29.99
GLENCOE        CLOUDY    64  55  73 SW12G18   29.92S
FARIBAULT      CLOUDY    68  54  60 SW15G22   29.94S
OWATONNA       PTSUNNY   70  52  52 W14G22    29.94F
WASECA         CLOUDY    64  50  59 W20G26    29.96F
ALBERT LEA     CLOUDY    64  52  63 W12G17    29.96F
$$
MNZ078>079-086>088-094>096-252000-
   Southeast Minnesota

CITY           SKY/WX    TMP DP  RH WIND       PRES   REMARKS
ROCHESTER      MOSUNNY   66  54  65 SW15G23   29.95F
RED WING       PTSUNNY   70  52  52 W15G21    29.89F
STANTON        PTSUNNY   69  53  56 W15G23    29.91F
DODGE CENTER   CLOUDY    66  52  59 W17       29.94F
WINONA         CLOUDY    72  61  68 W10G17    29.91S
AUSTIN         CLOUDY    64  52  63 W14G21    29.96F
PRESTON        CLOUDY    66  51  59 W13G23    29.95S
$$
ABBREVIATIONS USED IN REMARKS
   TC - TEMPERATURES IN CELSIUS
  WCI - WIND CHILL INDEX
   HX - HEAT INDEX
  VSB - VISIBILITY
$$




USA.gov is the U.S. government's official web portal to all federal, state and local government web resources and services.